CW4549 Weather Reports


time (UTC)temp
F
wind
direction
speed
knots
gust
knots
rain 1hr
in
rain 24hr
in
rain mn
in
humidity
%
barometer
mb
20260509023016 59 45 0.9 7.0 0.00 0.00 0.00 80 1004.6
20260509021516 60 0.0 5.2 0.00 0.00 0.00 76 1004.4
20260509020016 62 0.0 0.0 0.00 0.00 0.00 71 1003.9
20260509014521 62 0.0 0.9 0.00 0.00 0.00 66 1003.5
20260509013017 63 0.0 0.9 0.00 0.00 0.00 63 1003.4
20260509011538 64 0.0 3.5 0.00 0.00 0.00 58 1003.5
20260509010016 64 0.0 2.6 0.00 0.00 0.00 57 1003.8
20260509004516 64 0.0 0.9 0.00 0.00 0.00 56 1003.4
20260509003016 64 0.0 0.9 0.00 0.00 0.00 53 1003.2
20260509001540 65 0.0 1.7 0.00 0.00 0.00 52 1003.2
20260509000018 66 0.0 0.0 0.00 0.00 0.00 50 1003.6
20260508234517 67 0.0 0.9 0.00 0.00 0.00 47 1003.3
20260508233016 67 0.0 4.3 0.00 0.00 0.00 44 1003.2
20260508231517 67 0.0 5.2 0.00 0.00 0.00 43 1003.3
20260508230017 68 0.0 2.6 0.00 0.00 0.00 43 1003.3
20260508224518 68 0.0 2.6 0.00 0.00 0.00 42 1003.1
20260508223016 68 0.0 2.6 0.00 0.00 0.00 41 1003.1
20260508221516 69 158 0.9 6.1 0.00 0.00 0.00 41 1003.1
20260508220018 69 248 0.9 5.2 0.00 0.00 0.00 39 1003.1
20260508214517 69 158 0.9 6.1 0.00 0.00 0.00 40 1002.9
20260508213038 69 158 0.9 5.2 0.00 0.00 0.00 39 1003.1
20260508211517 70 158 0.9 7.0 0.00 0.00 0.00 38 1003.1
20260508210017 70 158 1.7 10.4 0.00 0.00 0.00 37 1003.3
20260508204520 69 158 1.7 7.0 0.00 0.00 0.00 40 1003.7
20260508203017 69 180 1.7 9.6 0.00 0.00 0.00 40 1004.0
20260508201517 69 158 0.9 6.1 0.00 0.00 0.00 39 1004.2
20260508200037 69 180 0.9 6.1 0.00 0.00 0.00 39 1004.4
20260508194517 68 158 0.9 9.6 0.00 0.00 0.00 41 1004.6
20260508193017 69 180 0.9 9.6 0.00 0.00 0.00 39 1004.7
20260508191538 69 158 0.9 7.0 0.00 0.00 0.00 41 1004.8
20260508190018 70 158 1.7 9.6 0.00 0.00 0.00 40 1004.7
20260508184517 71 158 2.6 13.9 0.00 0.00 0.00 37 1005.1
20260508183017 69 158 1.7 9.6 0.00 0.00 0.00 43 1005.1
20260508181538 69 180 0.9 7.8 0.00 0.00 0.00 39 1005.8
20260508180037 69 158 1.7 10.4 0.00 0.00 0.00 38 1005.9
20260508174517 69 180 1.7 7.0 0.00 0.00 0.00 41 1006.1
20260508173018 69 158 0.9 7.0 0.00 0.00 0.00 41 1006.4
20260508171517 69 158 0.9 9.6 0.00 0.00 0.00 42 1006.7
20260508170017 68 180 1.7 10.4 0.00 0.00 0.00 44 1006.9
20260508164517 69 180 2.6 10.4 0.00 0.00 0.00 43 1007.2
20260508163017 69 158 1.7 10.4 0.00 0.00 0.00 44 1007.4
20260508161517 68 158 1.7 11.3 0.00 0.00 0.00 45 1007.6
20260508160038 67 180 2.6 11.3 0.00 0.00 0.00 47 1007.7
20260508154517 66 158 3.5 13.9 0.00 0.00 0.00 48 1007.9
20260508153017 66 158 2.6 9.6 0.00 0.00 0.00 46 1008.1
20260508151519 65 180 1.7 7.8 0.00 0.00 0.00 47 1008.3
20260508150017 64 158 1.7 11.3 0.00 0.00 0.00 49 1008.3
20260508144517 63 158 1.7 9.6 0.00 0.00 0.00 49 1008.5
20260508143017 62 225 1.7 9.6 0.00 0.00 0.00 51 1008.4
20260508141519 61 180 1.7 7.8 0.00 0.00 0.00 52 1008.6
20260508140019 59 158 1.7 9.6 0.00 0.00 0.00 53 1008.7
20260508134515 58 203 1.7 10.4 0.00 0.00 0.00 57 1008.8
20260508133017 57 180 2.6 9.6 0.00 0.00 0.00 55 1008.8
20260508131515 56 180 0.9 7.0 0.00 0.00 0.00 59 1008.9
20260508130017 54 180 1.7 7.8 0.00 0.00 0.00 59 1008.7
20260508124516 53 180 0.9 10.4 0.00 0.00 0.00 61 1008.7
20260508123015 52 158 0.9 6.1 0.00 0.00 0.00 63 1008.6
20260508121516 51 180 0.9 6.1 0.00 0.00 0.00 66 1008.7
20260508120015 50 0.0 5.2 0.00 0.00 0.00 68 1008.5
20260508114535 49 0.0 2.6 0.00 0.00 0.00 72 1008.6
20260508113017 48 0.0 2.6 0.00 0.00 0.00 74 1008.2
20260508111515 48 0.0 2.6 0.00 0.00 0.00 69 1008.0
20260508110016 48 0.0 0.9 0.00 0.00 0.00 70 1008.0
20260508104517 48 0.0 0.9 0.00 0.00 0.00 70 1008.0
20260508103016 48 0.0 1.7 0.00 0.00 0.00 71 1008.0
20260508101515 48 0.0 2.6 0.00 0.00 0.00 74 1007.9
20260508100017 46 0.0 0.9 0.00 0.00 0.00 80 1007.9
20260508094517 45 0.0 0.0 0.00 0.00 0.00 87 1008.0
20260508093017 44 0.0 0.0 0.00 0.00 0.00 92 1007.9
20260508091517 44 0.0 0.0 0.00 0.00 0.00 92 1008.0
20260508090018 44 0.0 0.0 0.00 0.00 0.00 92 1008.1
20260508084516 44 0.0 0.0 0.00 0.00 0.00 91 1008.0
20260508083016 44 0.0 0.0 0.00 0.00 0.00 91 1007.9
20260508081516 44 0.0 0.0 0.00 0.00 0.00 90 1007.8
20260508080016 44 0.0 0.0 0.00 0.00 0.00 90 1007.9
20260508074517 44 0.0 0.0 0.00 0.00 0.00 89 1007.9
20260508073016 44 0.0 0.0 0.00 0.00 0.00 88 1007.9
20260508071516 44 0.0 0.0 0.00 0.00 0.00 87 1008.0
20260508070016 45 0.0 0.0 0.00 0.00 0.00 87 1008.0
20260508064516 45 0.0 0.9 0.00 0.00 0.00 86 1008.1
20260508063017 44 0.0 0.0 0.00 0.00 0.00 87 1008.5
20260508061516 44 0.0 0.0 0.00 0.00 0.00 86 1008.6
20260508060018 45 0.0 0.0 0.00 0.00 0.00 84 1008.9
20260508054536 45 0.0 0.0 0.00 0.00 0.00 81 1008.7
20260508053016 46 0.0 0.0 0.00 0.00 0.00 79 1008.7
20260508051516 47 0.0 0.0 0.00 0.00 0.00 76 1008.7
20260508050017 48 0.0 0.0 0.00 0.00 0.00 74 1008.6
20260508044516 49 0.0 0.0 0.00 0.00 0.00 69 1008.4
20260508043058 49 0.0 1.7 0.00 0.00 0.00 63 1008.7
20260508041516 48 0.0 0.9 0.00 0.00 0.00 68 1008.6
20260508040016 48 0.0 0.0 0.00 0.00 0.00 71 1008.6
20260508034516 48 0.0 0.9 0.00 0.00 0.00 70 1008.5
20260508033018 48 0.0 0.0 0.00 0.00 0.00 72 1008.5
20260508031537 48 0.0 0.0 0.00 0.00 0.00 75 1008.6
20260508030017 47 0.0 0.0 0.00 0.00 0.00 76 1008.6
20260508024517 47 0.0 0.0 0.00 0.00 0.00 79 1008.5